DW3560 Weather Reports


Display with metric or nautical units.
time (UTC)temp
F
wind
direction
speed
MPH
gust
MPH
rain 1hr
in
rain 24hr
in
rain mn
in
humidity
%
barometer
mb
20260902172002 65 181 3.0 9.0 0.00 0.00 0.00 73 1016.4
20260902171502 65 184 4.0 9.0 0.00 0.00 0.00 73 1016.4
20260902171002 65 195 4.0 8.0 0.00 0.00 0.00 72 1016.4
20260902170502 66 189 4.0 8.0 0.00 0.00 0.00 71 1016.4
20260902170002 66 193 4.0 8.0 0.00 0.00 0.00 71 1016.4
20260902165502 66 204 3.0 8.0 0.00 0.00 0.00 71 1016.4
20260902165002 65 196 3.0 10.0 0.00 0.00 0.00 71 1016.4
20260902164502 65 195 3.0 10.0 0.00 0.00 0.00 71 1016.4
20260902164002 65 189 3.0 9.0 0.00 0.00 0.00 72 1016.4
20260902163523 65 180 3.0 9.0 0.00 0.00 0.00 72 1016.4
20260902163002 65 185 4.0 10.0 0.00 0.00 0.00 72 1016.4
20260902162502 65 195 4.0 10.0 0.00 0.00 0.00 72 1016.4
20260902162002 64 193 3.0 8.0 0.00 0.00 0.00 71 1016.4
20260902161502 64 179 4.0 8.0 0.00 0.00 0.00 72 1016.4
20260902161002 64 169 4.0 8.0 0.00 0.00 0.00 72 1016.4
20260902160502 64 170 4.0 10.0 0.00 0.00 0.00 72 1016.4
20260902160003 64 173 4.0 10.0 0.00 0.00 0.00 71 1016.4
20260902155502 63 168 4.0 9.0 0.00 0.00 0.00 71 1016.4
20260902155002 63 162 3.0 9.0 0.00 0.00 0.00 72 1016.4
20260902154502 62 160 2.0 7.0 0.00 0.00 0.00 73 1016.4
20260902154002 62 177 3.0 8.0 0.00 0.00 0.00 73 1016.4
20260902153502 61 191 3.0 8.0 0.00 0.00 0.00 74 1016.4
20260902153002 61 187 3.0 9.0 0.00 0.00 0.00 75 1016.4
20260902152502 60 183 2.0 9.0 0.00 0.00 0.00 76 1016.4
20260902152002 60 191 1.0 4.0 0.00 0.00 0.00 77 1016.4
20260902151502 60 199 2.0 6.0 0.00 0.00 0.00 77 1016.4
20260902151002 60 196 2.0 6.0 0.00 0.00 0.00 78 1016.4
20260902150502 60 188 2.0 6.0 0.00 0.00 0.00 78 1016.4
20260902150023 60 178 2.0 7.0 0.00 0.00 0.00 79 1016.4
20260902145502 59 170 3.0 7.0 0.00 0.00 0.00 79 1016.4
20260902145002 59 165 3.0 6.0 0.00 0.00 0.00 80 1016.4
20260902144523 59 163 2.0 7.0 0.00 0.00 0.00 81 1016.4
20260902144002 58 171 2.0 7.0 0.00 0.00 0.00 81 1016.4
20260902143502 58 172 2.0 6.0 0.00 0.00 0.00 81 1016.4
20260902143002 58 157 2.0 5.0 0.00 0.00 0.00 81 1016.4
20260902142502 58 150 2.0 9.0 0.00 0.00 0.00 81 1016.4
20260902142003 58 148 3.0 9.0 0.00 0.00 0.00 81 1016.4
20260902141502 57 144 2.0 6.0 0.00 0.00 0.00 81 1016.4
20260902141002 57 148 2.0 6.0 0.00 0.00 0.00 80 1016.4
20260902140502 57 156 1.0 4.0 0.00 0.00 0.00 81 1016.4
20260902140002 57 151 1.0 5.0 0.00 0.00 0.00 81 1016.4
20260902135502 57 139 2.0 5.0 0.00 0.00 0.00 81 1016.4
20260902135002 57 138 2.0 5.0 0.00 0.00 0.00 81 1016.4
20260902134502 57 144 2.0 4.0 0.00 0.00 0.00 81 1016.4
20260902134002 57 141 2.0 5.0 0.00 0.00 0.00 81 1016.4
20260902133502 57 138 2.0 5.0 0.00 0.00 0.00 81 1016.4
20260902133003 57 144 2.0 5.0 0.00 0.00 0.00 81 1016.4
20260902132523 57 152 2.0 5.0 0.00 0.00 0.00 80 1016.4
20260902132002 57 161 1.0 4.0 0.00 0.00 0.00 80 1016.4
20260902131502 57 154 1.0 5.0 0.00 0.00 0.00 81 1016.4
20260902131002 57 150 1.0 5.0 0.00 0.00 0.00 81 1016.4
20260902130502 58 154 1.0 7.0 0.00 0.00 0.00 81 1016.4
20260902130003 58 155 1.0 7.0 0.00 0.00 0.00 81 1016.4
20260902125502 58 153 1.0 4.0 0.00 0.00 0.00 81 1016.4
20260902125003 58 152 1.0 4.0 0.00 0.00 0.00 81 1016.4
20260902124502 58 154 1.0 5.0 0.00 0.00 0.00 81 1016.4
20260902124003 58 158 1.0 5.0 0.00 0.00 0.00 82 1016.4
20260902123503 58 157 1.0 5.0 0.00 0.00 0.00 82 1016.4
20260902123003 58 154 1.0 4.0 0.00 0.00 0.00 82 1016.4
20260902122524 57 155 1.0 4.0 0.00 0.00 0.00 82 1016.4
20260902122002 57 162 1.0 4.0 0.00 0.00 0.00 83 1016.4
20260902121502 57 170 1.0 5.0 0.00 0.00 0.00 83 1016.4
20260902121003 57 162 1.0 5.0 0.00 0.00 0.00 84 1016.4
20260902120502 57 150 1.0 5.0 0.00 0.00 0.00 85 1016.4
20260902120003 57 140 1.0 7.0 0.00 0.00 0.00 85 1016.4
20260902115503 57 142 1.0 7.0 0.00 0.00 0.00 85 1016.4
20260902115003 57 147 1.0 4.0 0.00 0.00 0.00 85 1016.4
20260902114502 57 149 1.0 4.0 0.00 0.00 0.00 86 1016.4
20260902114002 57 149 1.0 4.0 0.00 0.00 0.00 86 1016.4
20260902113503 56 150 1.0 3.0 0.00 0.00 0.00 86 1016.4
20260902113003 56 148 1.0 4.0 0.00 0.00 0.00 86 1016.4
20260902112502 56 146 1.0 4.0 0.00 0.00 0.00 86 1016.4
20260902112002 56 143 0.0 3.0 0.00 0.00 0.00 87 1016.4
20260902111503 56 144 0.0 3.0 0.00 0.00 0.00 86 1016.4
20260902111002 56 144 0.0 3.0 0.00 0.00 0.00 87 1016.4
20260902110502 56 144 0.0 2.0 0.00 0.00 0.00 87 1016.4
20260902110003 56 144 0.0 1.0 0.00 0.00 0.00 87 1014.4
20260902105503 56 146 0.0 3.0 0.00 0.00 0.00 87 1014.4
20260902105002 56 150 0.0 3.0 0.00 0.00 0.00 87 1014.4
20260902104524 56 157 0.0 2.0 0.00 0.00 0.00 87 1014.4
20260902104002 56 170 0.0 3.0 0.00 0.00 0.00 87 1014.4
20260902103503 56 178 0.0 3.0 0.00 0.00 0.00 88 1014.4
20260902103002 56 185 0.0 1.0 0.00 0.00 0.00 88 1014.4
20260902102502 56 187 0.0 1.0 0.00 0.00 0.00 88 1014.4
20260902102002 56 189 0.0 1.0 0.00 0.00 0.00 88 1014.4
20260902101503 56 197 0.0 2.0 0.00 0.00 0.00 88 1014.4
20260902101003 56 204 0.0 2.0 0.00 0.00 0.00 88 1014.4
20260902100502 56 211 0.0 1.0 0.00 0.00 0.00 89 1014.4
20260902100024 56 211 0.0 1.0 0.00 0.00 0.00 89 1014.4
20260902095503 56 211 0.0 1.0 0.00 0.00 0.00 89 1014.4
20260902095023 57 0 0.0 0.0 0.00 0.00 0.00 89 1014.4
20260902094502 57 0 0.0 0.0 0.00 0.00 0.00 89 1014.4
20260902094023 57 0 0.0 0.0 0.00 0.00 0.00 89 1014.4
20260902093502 57 0 0.0 0.0 0.00 0.00 0.00 89 1014.4
20260902093002 57 0 0.0 0.0 0.00 0.00 0.00 89 1014.4
20260902092503 57 0 0.0 0.0 0.00 0.00 0.00 89 1014.4
20260902092023 57 0 0.0 0.0 0.00 0.00 0.00 89 1014.4
20260902091503 57 0 0.0 0.0 0.00 0.00 0.00 89 1014.4
20260902091003 57 213 0.0 1.0 0.00 0.00 0.00 89 1014.4
20260902090503 57 213 0.0 1.0 0.00 0.00 0.00 89 1014.4
20260902090003 57 213 0.0 1.0 0.00 0.00 0.00 89 1014.4
20260902085503 57 213 0.0 1.0 0.00 0.00 0.00 89 1014.4
20260902085002 57 0 0.0 0.0 0.00 0.00 0.00 89 1014.4
20260902084503 57 0 0.0 0.0 0.00 0.00 0.00 89 1014.4
20260902084003 57 0 0.0 0.0 0.00 0.00 0.00 89 1014.4
20260902083523 57 213 0.0 1.0 0.00 0.00 0.00 89 1014.4
20260902083003 57 213 0.0 1.0 0.00 0.00 0.00 89 1014.4
20260902082502 57 0 0.0 0.0 0.00 0.00 0.00 89 1014.4
20260902082002 57 212 0.0 1.0 0.00 0.00 0.00 89 1014.4
20260902081503 57 205 0.0 2.0 0.00 0.00 0.00 90 1014.4
20260902081002 57 189 0.0 2.0 0.00 0.00 0.00 90 1014.4
20260902080502 57 170 0.0 2.0 0.00 0.00 0.00 90 1014.4
20260902080024 57 156 0.0 1.0 0.00 0.00 0.00 90 1014.4
20260902075503 57 156 0.0 2.0 0.00 0.00 0.00 89 1014.4
20260902075003 57 159 0.0 3.0 0.00 0.00 0.00 89 1014.4
20260902074524 57 177 0.0 3.0 0.00 0.00 0.00 89 1014.4
20260902074024 57 194 0.0 2.0 0.00 0.00 0.00 89 1014.4
20260902073503 57 195 0.0 2.0 0.00 0.00 0.00 89 1014.4
20260902073003 57 195 1.0 3.0 0.00 0.00 0.00 89 1014.4
20260902072502 57 197 1.0 3.0 0.00 0.00 0.00 89 1014.4
20260902072003 57 197 0.0 2.0 0.00 0.00 0.00 89 1014.4
20260902071502 57 198 0.0 1.0 0.00 0.00 0.00 89 1014.4
20260902071003 57 198 0.0 1.0 0.00 0.00 0.00 88 1014.4
20260902070524 57 198 0.0 1.0 0.00 0.00 0.00 88 1014.4
20260902070007 58 0 0.0 0.0 0.00 0.00 0.00 88 1014.4
20260902065502 58 0 0.0 0.0 0.00 0.00 0.00 88 1014.4
20260902065002 58 0 0.0 0.0 0.00 0.00 0.00 88 1014.4
20260902064503 58 0 0.0 0.0 0.00 0.00 0.00 88 1014.4
20260902064002 58 0 0.0 0.0 0.00 0.00 0.00 88 1014.4
20260902063503 58 0 0.0 0.0 0.00 0.00 0.00 88 1014.4
20260902063024 58 0 0.0 0.0 0.00 0.00 0.00 88 1014.4
20260902062502 58 198 0.0 1.0 0.00 0.00 0.00 88 1014.4
20260902062002 58 198 0.0 1.0 0.00 0.00 0.00 87 1014.4
20260902061502 58 0 0.0 0.0 0.00 0.00 0.00 87 1014.4
20260902061024 58 198 0.0 1.0 0.00 0.00 0.00 87 1014.4
20260902060503 58 198 0.0 2.0 0.00 0.00 0.00 87 1014.4
20260902060003 58 198 0.0 2.0 0.00 0.00 0.00 87 1014.4
20260902055503 58 0 0.0 0.0 0.00 0.00 0.00 87 1014.4
20260902055003 58 200 1.0 3.0 0.00 0.00 0.00 87 1014.4
20260902054524 58 201 1.0 3.0 0.00 0.00 0.00 87 1014.4
20260902054003 58 214 1.0 3.0 0.00 0.00 0.00 86 1014.4
20260902053503 58 222 1.0 3.0 0.00 0.00 0.00 86 1014.4
20260902053003 59 246 0.0 3.0 0.00 0.00 0.00 86 1014.4
20260902052503 59 251 0.0 2.0 0.00 0.00 0.00 86 1014.4
20260902052003 59 251 0.0 2.0 0.00 0.00 0.00 86 1014.4
20260902051503 59 252 0.0 4.0 0.00 0.00 0.00 86 1014.4
20260902051003 59 252 0.0 4.0 0.00 0.00 0.00 85 1014.4
20260902050502 59 250 0.0 1.0 0.00 0.00 0.00 85 1014.4
20260902050004 59 250 0.0 1.0 0.00 0.00 0.00 85 1014.4
20260902045503 59 250 0.0 1.0 0.00 0.00 0.00 85 1014.4
20260902045003 59 250 0.0 1.0 0.00 0.00 0.00 85 1014.4
20260902044503 59 250 0.0 1.0 0.00 0.00 0.00 85 1014.4
20260902044002 59 251 0.0 1.0 0.00 0.00 0.00 85 1014.4
20260902043503 59 254 0.0 2.0 0.00 0.00 0.00 85 1014.4
20260902043024 59 255 0.0 2.0 0.00 0.00 0.00 84 1014.4
20260902042524 59 255 0.0 1.0 0.00 0.00 0.00 85 1014.4
20260902042003 59 255 0.0 1.0 0.00 0.00 0.00 84 1014.4
20260902041524 59 255 1.0 3.0 0.00 0.00 0.00 84 1014.4
20260902041024 59 253 2.0 5.0 0.00 0.00 0.00 84 1014.4
20260902040503 59 249 2.0 5.0 0.00 0.00 0.00 84 1014.4
20260902040003 59 246 2.0 4.0 0.00 0.00 0.00 84 1014.4
20260902035503 59 249 2.0 7.0 0.00 0.00 0.00 83 1014.4
20260902035024 59 249 2.0 7.0 0.00 0.00 0.00 83 1014.4
20260902034502 59 245 2.0 5.0 0.00 0.00 0.00 82 1014.4
20260902034003 60 249 2.0 8.0 0.00 0.00 0.00 82 1014.4
20260902033503 60 259 2.0 8.0 0.00 0.00 0.00 82 1014.4
20260902033003 60 254 2.0 7.0 0.00 0.00 0.00 81 1014.4
20260902032503 60 249 2.0 7.0 0.00 0.00 0.00 81 1014.4
20260902032003 60 249 3.0 7.0 0.00 0.00 0.00 80 1014.4
20260902031503 60 251 3.0 7.0 0.00 0.00 0.00 80 1014.4
20260902031003 60 250 3.0 9.0 0.00 0.00 0.00 79 1014.4
20260902030503 60 253 3.0 9.0 0.00 0.00 0.00 79 1014.4
20260902030003 60 261 3.0 8.0 0.00 0.00 0.00 78 1014.4
20260902025503 60 259 4.0 10.0 0.00 0.00 0.00 78 1014.4
20260902025024 61 256 4.0 10.0 0.00 0.00 0.00 77 1014.4
20260902024503 61 255 4.0 9.0 0.00 0.00 0.00 76 1014.4
20260902024024 61 258 4.0 9.0 0.00 0.00 0.00 75 1014.4
20260902023503 61 266 3.0 9.0 0.00 0.00 0.00 74 1014.4
20260902023003 62 266 2.0 7.0 0.00 0.00 0.00 73 1014.4
20260902022503 62 261 2.0 8.0 0.00 0.00 0.00 72 1014.4
20260902022003 62 259 3.0 12.0 0.00 0.00 0.00 72 1014.4
20260902021503 62 261 4.0 12.0 0.00 0.00 0.00 71 1014.4
20260902021024 62 264 3.0 11.0 0.00 0.00 0.00 71 1014.4
20260902020503 62 256 4.0 10.0 0.00 0.00 0.00 70 1014.4
20260902020003 63 256 4.0 10.0 0.00 0.00 0.00 70 1014.4
20260902015503 63 261 3.0 9.0 0.00 0.00 0.00 69 1014.4
20260902015003 63 250 3.0 10.0 0.00 0.00 0.00 69 1014.4
20260902014503 64 254 4.0 10.0 0.00 0.00 0.00 69 1014.4
20260902014003 64 268 4.0 10.0 0.00 0.00 0.00 68 1014.4
20260902013503 64 262 4.0 10.0 0.00 0.00 0.00 67 1014.4
20260902013003 65 256 4.0 11.0 0.00 0.00 0.00 67 1014.4
20260902012524 65 258 4.0 11.0 0.00 0.00 0.00 66 1014.4
20260902012003 66 266 4.0 10.0 0.00 0.00 0.00 65 1014.4
20260902011503 66 269 3.0 9.0 0.00 0.00 0.00 65 1014.4
20260902011003 66 273 4.0 12.0 0.00 0.00 0.00 65 1014.4
20260902010503 66 271 3.0 12.0 0.00 0.00 0.00 64 1014.4
20260902010003 66 265 3.0 9.0 0.00 0.00 0.00 63 1014.4
20260902005503 67 279 3.0 9.0 0.00 0.00 0.00 63 1014.4
20260902005003 67 290 3.0 11.0 0.00 0.00 0.00 62 1014.4
20260902004503 67 272 3.0 11.0 0.00 0.00 0.00 63 1014.4
20260902004003 67 267 4.0 10.0 0.00 0.00 0.00 63 1014.4
20260902003503 67 261 4.0 9.0 0.00 0.00 0.00 63 1014.4
20260902003003 67 260 5.0 12.0 0.00 0.00 0.00 62 1014.4
20260902002503 68 269 3.0 12.0 0.00 0.00 0.00 60 1014.4
20260902002003 68 289 2.0 11.0 0.00 0.00 0.00 60 1014.4
20260902001503 68 290 3.0 11.0 0.00 0.00 0.00 60 1014.4
20260902001024 68 279 3.0 11.0 0.00 0.00 0.00 59 1014.4
20260902000524 68 273 3.0 12.0 0.00 0.00 0.00 61 1014.4
20260902000003 68 266 4.0 12.0 0.00 0.00 0.00 62 1014.4
20260901235503 68 255 3.0 10.0 0.00 0.00 0.00 62 1014.4
20260901235003 68 265 3.0 8.0 0.00 0.00 0.00 62 1014.4
20260901234524 68 265 4.0 13.0 0.00 0.00 0.00 62 1014.4
20260901234003 68 267 4.0 13.0 0.00 0.00 0.00 61 1014.4
20260901233503 68 267 3.0 11.0 0.00 0.00 0.00 61 1014.4
20260901233003 68 263 4.0 14.0 0.00 0.00 0.00 61 1014.4
20260901232503 68 260 4.0 14.0 0.00 0.00 0.00 58 1014.4
20260901232003 69 271 4.0 11.0 0.00 0.00 0.00 57 1014.4
20260901231503 69 286 3.0 9.0 0.00 0.00 0.00 57 1014.4
20260901231003 69 267 3.0 11.0 0.00 0.00 0.00 56 1014.4
20260901230503 69 260 3.0 13.0 0.00 0.00 0.00 57 1014.4
20260901230003 69 281 3.0 13.0 0.00 0.00 0.00 56 1014.4
20260901225503 70 288 3.0 10.0 0.00 0.00 0.00 55 1014.4
20260901225003 70 278 3.0 11.0 0.00 0.00 0.00 55 1014.4
20260901224505 70 261 3.0 11.0 0.00 0.00 0.00 55 1014.4
20260901224003 70 268 3.0 9.0 0.00 0.00 0.00 55 1014.4
20260901223524 70 297 3.0 9.0 0.00 0.00 0.00 56 1014.4
20260901223003 70 286 3.0 12.0 0.00 0.00 0.00 56 1014.4
20260901222503 70 288 3.0 12.0 0.00 0.00 0.00 56 1014.4
20260901222003 70 279 3.0 13.0 0.00 0.00 0.00 56 1014.4
20260901221503 70 272 3.0 13.0 0.00 0.00 0.00 56 1014.4
20260901221003 70 281 3.0 12.0 0.00 0.00 0.00 57 1014.4
20260901220503 70 269 3.0 12.0 0.00 0.00 0.00 57 1014.4
20260901220003 70 269 3.0 8.0 0.00 0.00 0.00 58 1014.4
20260901215503 70 275 3.0 10.0 0.00 0.00 0.00 58 1014.4
20260901215003 70 268 3.0 11.0 0.00 0.00 0.00 58 1014.4
20260901214503 70 272 4.0 11.0 0.00 0.00 0.00 57 1014.4
20260901214003 70 282 3.0 11.0 0.00 0.00 0.00 58 1014.4
20260901213524 70 309 2.0 8.0 0.00 0.00 0.00 58 1014.4
20260901213003 69 295 3.0 10.0 0.00 0.00 0.00 59 1014.4
20260901212503 69 266 3.0 10.0 0.00 0.00 0.00 59 1014.4
20260901212024 69 263 3.0 12.0 0.00 0.00 0.00 58 1014.4
20260901211503 68 264 3.0 12.0 0.00 0.00 0.00 59 1014.4
20260901211024 68 261 3.0 10.0 0.00 0.00 0.00 59 1014.4
20260901210503 68 256 3.0 10.0 0.00 0.00 0.00 58 1014.4
20260901210003 68 254 3.0 8.0 0.00 0.00 0.00 58 1014.4
20260901205524 68 257 2.0 7.0 0.00 0.00 0.00 58 1014.4
20260901205003 68 260 3.0 9.0 0.00 0.00 0.00 58 1014.4
20260901204503 68 264 3.0 9.0 0.00 0.00 0.00 58 1014.4
20260901204003 68 295 2.0 5.0 0.00 0.00 0.00 58 1014.4
20260901203503 68 260 2.0 5.0 0.00 0.00 0.00 59 1014.4
20260901203003 67 203 3.0 6.0 0.00 0.00 0.00 59 1014.4
20260901202503 67 235 3.0 10.0 0.00 0.00 0.00 59 1014.4
20260901202003 67 257 3.0 10.0 0.00 0.00 0.00 60 1014.4
20260901201503 67 254 2.0 7.0 0.00 0.00 0.00 59 1014.4
20260901201003 67 234 2.0 7.0 0.00 0.00 0.00 61 1014.4
20260901200503 67 246 3.0 7.0 0.00 0.00 0.00 61 1014.4
20260901200003 67 297 3.0 8.0 0.00 0.00 0.00 61 1014.4
20260901195503 66 295 2.0 8.0 0.00 0.00 0.00 63 1014.4
20260901195003 66 256 2.0 6.0 0.00 0.00 0.00 63 1014.4
20260901194503 65 251 2.0 8.0 0.00 0.00 0.00 63 1014.4
20260901194003 65 248 3.0 11.0 0.00 0.00 0.00 63 1014.4
20260901193503 65 267 2.0 11.0 0.00 0.00 0.00 64 1014.4
20260901193003 64 271 3.0 7.0 0.00 0.00 0.00 64 1014.4
20260901192503 64 248 3.0 8.0 0.00 0.00 0.00 65 1014.4
20260901192024 64 244 4.0 8.0 0.00 0.00 0.00 64 1014.4
20260901191503 64 241 4.0 8.0 0.00 0.00 0.00 65 1014.4
20260901191003 64 244 4.0 9.0 0.00 0.00 0.00 66 1014.4
20260901190503 64 261 3.0 9.0 0.00 0.00 0.00 67 1014.4
20260901190003 64 265 3.0 9.0 0.00 0.00 0.00 68 1014.4
20260901185503 64 253 3.0 9.0 0.00 0.00 0.00 67 1014.4
20260901185003 64 258 2.0 8.0 0.00 0.00 0.00 66 1014.4
20260901184503 64 268 2.0 7.0 0.00 0.00 0.00 67 1014.4
20260901184003 64 249 2.0 9.0 0.00 0.00 0.00 67 1014.4
20260901183503 64 243 3.0 9.0 0.00 0.00 0.00 66 1014.4
20260901183003 64 247 3.0 8.0 0.00 0.00 0.00 66 1014.4
20260901182503 64 245 3.0 8.0 0.00 0.00 0.00 66 1014.4
20260901182003 64 238 3.0 8.0 0.00 0.00 0.00 66 1014.4
20260901181503 64 232 3.0 9.0 0.00 0.00 0.00 66 1014.4
20260901181003 63 240 3.0 9.0 0.00 0.00 0.00 67 1014.4
20260901180503 63 250 3.0 10.0 0.00 0.00 0.00 67 1014.4
20260901180003 63 251 4.0 10.0 0.00 0.00 0.00 66 1014.4
20260901175524 63 244 3.0 9.0 0.00 0.00 0.00 66 1014.4
20260901175003 63 247 3.0 9.0 0.00 0.00 0.00 66 1014.4
20260901174503 63 230 4.0 9.0 0.00 0.00 0.00 66 1014.4
20260901174003 63 221 4.0 9.0 0.00 0.00 0.00 67 1014.4
20260901173524 62 235 3.0 9.0 0.00 0.00 0.00 67 1014.4
20260901173003 62 242 3.0 7.0 0.00 0.00 0.00 68 1014.4
20260901172503 62 249 3.0 7.0 0.00 0.00 0.00 69 1014.4